Terminal Aerodrome Forecast
Issued by NWS

Home | Current Version | Previous Version | Text Only | Print | Product List | Glossary On
Versions: 1 2 3 4 5 6 7 8 9 10 11 12 13 14 15 16 17 18
000
FTUS41 KGYX 260211 AAA
TAFPSM
TAF AMD
KPSM 260211Z 2602/2624 15007KT P6SM SCT080 BKN120
      TEMPO 2602/2606 -SHRA BKN080 OVC100
     FM260600 16007KT P6SM VCSH BKN080 OVC100
     FM261200 22009KT P6SM SCT080 BKN120
     FM261500 23010KT P6SM SCT100 BKN150=

USA.gov is the U.S. government's official web portal to all federal, state and local government web resources and services.